• In Uzbekistan
  • List of Countries
  • For 7 days
  • Water Temperature
  • Satellite Maps
  • Weather Map
  • Weather Widgets
  • user-avatar
    Login

    Hourly Weather Nikolaevka 2

    Today, 22 April, Monday

    Time Temperature Precipitation Wind Pressure Humidity
    00:00 +7°C° 0 mm 2 mps 752 mmHg 69%
    01:00 +7°C° 0 mm 2 mps 752 mmHg 71%
    02:00 +7°C° 0 mm 2 mps 752 mmHg 72%
    03:00 +6°C° 0 mm 2 mps 752 mmHg 72%
    04:00 +6°C° 0 mm 2 mps 752 mmHg 72%
    05:00 +6°C° 0 mm 2 mps 753 mmHg 72%
    06:00 +8°C° 0 mm 2 mps 753 mmHg 65%
    07:00 +10°C° 0 mm 2 mps 753 mmHg 59%
    08:00 +13°C° 0 mm 2 mps 754 mmHg 52%
    09:00 +14°C° 0 mm 2 mps 754 mmHg 45%
    10:00 +15°C° 0 mm 2 mps 754 mmHg 38%
    11:00 +17°C° 0 mm 3 mps 754 mmHg 31%
    12:00 +16°C° 0 mm 3 mps 754 mmHg 32%
    13:00 +16°C° 0 mm 2 mps 754 mmHg 34%
    14:00 +16°C° 0 mm 2 mps 754 mmHg 36%
    15:00 +16°C° 0 mm 2 mps 754 mmHg 36%
    16:00 +16°C° 0 mm 2 mps 754 mmHg 37%
    17:00 +16°C° 0 mm 2 mps 754 mmHg 38%
    18:00 +15°C° 0 mm 1 mps 754 mmHg 41%
    19:00 +14°C° 0 mm 1 mps 754 mmHg 44%
    20:00 +11°C° 0 mm 0 mps 754 mmHg 47%
    21:00 +10°C° 0 mm 0 mps 754 mmHg 49%
    22:00 +10°C° 0 mm 0 mps 755 mmHg 50%
    23:00 +9°C° 0 mm 0 mps 755 mmHg 52%

    Tomorrow, 23 April, Tuesday

    Time Temperature Precipitation Wind Pressure Humidity
    00:00 +8°C° 0 mm 0 mps 755 mmHg 54%
    01:00 +9°C° 0 mm 1 mps 755 mmHg 55%
    02:00 +9°C° 0 mm 1 mps 755 mmHg 57%
    03:00 +8°C° 0 mm 1 mps 755 mmHg 58%
    04:00 +8°C° 0 mm 1 mps 756 mmHg 59%
    05:00 +8°C° 0 mm 1 mps 756 mmHg 61%
    06:00 +9°C° 0 mm 1 mps 756 mmHg 59%
    07:00 +10°C° 0 mm 2 mps 756 mmHg 58%
    08:00 +12°C° 0 mm 2 mps 756 mmHg 56%
    09:00 +14°C° 0 mm 2 mps 756 mmHg 51%
    10:00 +15°C° 0 mm 2 mps 756 mmHg 47%
    11:00 +17°C° 0 mm 2 mps 756 mmHg 42%
    12:00 +17°C° 0 mm 2 mps 756 mmHg 39%
    13:00 +17°C° 0 mm 2 mps 756 mmHg 36%
    14:00 +18°C° 0 mm 2 mps 756 mmHg 34%
    15:00 +18°C° 0 mm 2 mps 755 mmHg 35%
    16:00 +17°C° 0 mm 2 mps 755 mmHg 36%
    17:00 +17°C° 0 mm 2 mps 755 mmHg 37%
    18:00 +16°C° 0 mm 2 mps 755 mmHg 41%
    19:00 +14°C° 0 mm 1 mps 755 mmHg 45%
    20:00 +12°C° 0 mm 1 mps 755 mmHg 50%
    21:00 +12°C° 0 mm 1 mps 755 mmHg 51%
    22:00 +11°C° 0 mm 1 mps 755 mmHg 53%
    23:00 +10°C° 0 mm 1 mps 755 mmHg 54%

    Day after tomorrow, 24 April, Wednesday

    Time Temperature Precipitation Wind Pressure Humidity
    00:00 +10°C° 0 mm 1 mps 755 mmHg 55%
    01:00 +10°C° 0 mm 1 mps 755 mmHg 57%
    02:00 +9°C° 0 mm 1 mps 755 mmHg 58%
    03:00 +9°C° 0 mm 1 mps 756 mmHg 59%
    04:00 +9°C° 0 mm 1 mps 756 mmHg 60%
    05:00 +8°C° 0 mm 1 mps 756 mmHg 61%
    06:00 +10°C° 0 mm 1 mps 756 mmHg 57%
    07:00 +12°C° 0 mm 1 mps 756 mmHg 53%
    08:00 +14°C° 0 mm 2 mps 756 mmHg 49%
    09:00 +15°C° 0 mm 2 mps 756 mmHg 45%
    10:00 +17°C° 0 mm 2 mps 756 mmHg 40%
    11:00 +18°C° 0 mm 3 mps 756 mmHg 36%
    12:00 +18°C° 0 mm 3 mps 755 mmHg 35%
    13:00 +19°C° 0 mm 3 mps 755 mmHg 34%
    14:00 +19°C° 0 mm 3 mps 755 mmHg 33%
    15:00 +19°C° 0 mm 3 mps 755 mmHg 35%
    16:00 +19°C° 0 mm 3 mps 754 mmHg 36%
    17:00 +19°C° 0 mm 3 mps 754 mmHg 38%
    18:00 +17°C° 0 mm 2 mps 754 mmHg 42%
    19:00 +15°C° 0 mm 2 mps 754 mmHg 47%
    20:00 +13°C° 0 mm 2 mps 754 mmHg 51%
    21:00 +13°C° 0 mm 2 mps 754 mmHg 54%
    22:00 +12°C° 0 mm 2 mps 754 mmHg 56%
    23:00 +10°C° 0 mm 2 mps 754 mmHg 58%

    25 April, Thursday

    Time Temperature Precipitation Wind Pressure Humidity
    00:00 +10°C° 0 mm 2 mps 754 mmHg 60%
    01:00 +10°C° 0 mm 2 mps 754 mmHg 61%
    02:00 +10°C° 0 mm 1 mps 755 mmHg 63%
    03:00 +10°C° 0 mm 1 mps 755 mmHg 65%
    04:00 +9°C° 0 mm 1 mps 755 mmHg 66%
    05:00 +9°C° 0 mm 1 mps 755 mmHg 67%
    06:00 +10°C° 0 mm 2 mps 755 mmHg 63%
    07:00 +13°C° 0 mm 2 mps 755 mmHg 59%
    08:00 +15°C° 0 mm 2 mps 755 mmHg 54%
    09:00 +16°C° 0 mm 3 mps 755 mmHg 50%
    10:00 +17°C° 0 mm 4 mps 755 mmHg 45%
    11:00 +19°C° 0 mm 4 mps 755 mmHg 41%
    12:00 +19°C° 0 mm 4 mps 754 mmHg 40%
    13:00 +20°C° 0 mm 4 mps 754 mmHg 39%
    14:00 +20°C° 0 mm 5 mps 754 mmHg 38%
    15:00 +20°C° 0 mm 4 mps 753 mmHg 39%
    16:00 +20°C° 0 mm 4 mps 753 mmHg 40%
    17:00 +19°C° 0 mm 4 mps 752 mmHg 41%
    18:00 +18°C° 0 mm 3 mps 752 mmHg 46%
    19:00 +16°C° 0 mm 3 mps 752 mmHg 51%
    20:00 +13°C° 0 mm 3 mps 752 mmHg 55%
    21:00 +12°C° 0 mm 3 mps 752 mmHg 57%
    22:00 +12°C° 0 mm 3 mps 752 mmHg 59%
    23:00 +11°C° 0 mm 3 mps 752 mmHg 61%

    26 April, Friday

    Time Temperature Precipitation Wind Pressure Humidity
    00:00 +11°C° 0 mm 3 mps 752 mmHg 62%
    01:00 +10°C° 0 mm 3 mps 752 mmHg 64%
    02:00 +10°C° 0 mm 3 mps 752 mmHg 65%
    03:00 +9°C° 0 mm 3 mps 751 mmHg 67%
    04:00 +9°C° 0 mm 3 mps 751 mmHg 69%
    05:00 +9°C° 0 mm 3 mps 751 mmHg 71%
    06:00 +11°C° 0 mm 3 mps 751 mmHg 67%
    07:00 +12°C° 0 mm 4 mps 751 mmHg 62%
    08:00 +14°C° 0 mm 4 mps 750 mmHg 58%
    09:00 +16°C° 0 mm 5 mps 750 mmHg 53%
    10:00 +17°C° 0 mm 6 mps 750 mmHg 47%
    11:00 +20°C° 0 mm 6 mps 750 mmHg 42%
    12:00 +20°C° 0 mm 6 mps 749 mmHg 41%
    13:00 +21°C° 0 mm 6 mps 749 mmHg 40%
    14:00 +21°C° 0 mm 6 mps 748 mmHg 38%
    15:00 +21°C° 0 mm 6 mps 748 mmHg 40%
    16:00 +21°C° 0 mm 5 mps 748 mmHg 41%
    17:00 +21°C° 0 mm 4 mps 747 mmHg 43%
    18:00 +19°C° 0 mm 4 mps 747 mmHg 47%
    19:00 +17°C° 0 mm 3 mps 747 mmHg 51%
    20:00 +14°C° 0 mm 3 mps 747 mmHg 56%
    21:00 +14°C° 0 mm 3 mps 747 mmHg 57%
    22:00 +13°C° 0 mm 3 mps 747 mmHg 58%
    23:00 +12°C° 0 mm 3 mps 747 mmHg 59%

    27 April, Saturday

    Time Temperature Precipitation Wind Pressure Humidity
    00:00 +12°C° 0 mm 3 mps 746 mmHg 60%
    01:00 +11°C° 0 mm 3 mps 746 mmHg 61%
    02:00 +11°C° 0 mm 3 mps 746 mmHg 62%
    03:00 +10°C° 0 mm 3 mps 746 mmHg 65%
    04:00 +10°C° 0 mm 3 mps 746 mmHg 68%
    05:00 +9°C° 0 mm 3 mps 746 mmHg 70%
    06:00 +11°C° 0 mm 3 mps 746 mmHg 67%
    07:00 +13°C° 0 mm 4 mps 746 mmHg 64%
    08:00 +15°C° 0 mm 5 mps 746 mmHg 60%
    09:00 +16°C° 0 mm 5 mps 746 mmHg 55%
    10:00 +19°C° 0 mm 5 mps 746 mmHg 49%
    11:00 +21°C° 0 mm 6 mps 746 mmHg 44%
    12:00 +22°C° 0 mm 6 mps 746 mmHg 42%
    13:00 +23°C° 0 mm 6 mps 746 mmHg 40%
    14:00 +23°C° 0 mm 6 mps 745 mmHg 38%
    15:00 +23°C° 0 mm 5 mps 745 mmHg 40%
    16:00 +23°C° 0 mm 4 mps 745 mmHg 42%
    17:00 +22°C° 0 mm 3 mps 745 mmHg 44%
    18:00 +20°C° 0 mm 3 mps 745 mmHg 48%
    19:00 +18°C° 0 mm 3 mps 744 mmHg 52%
    20:00 +17°C° 0 mm 3 mps 744 mmHg 56%
    21:00 +15°C° 0 mm 4 mps 744 mmHg 58%
    22:00 +14°C° 0 mm 4 mps 744 mmHg 59%
    23:00 +14°C° 0 mm 4 mps 744 mmHg 61%
    Show more